This demonstration page uses our WeatherBlox Daily Observations layout. Learn more.

Left ArrowRight Arrow

39.51506, -84.39828

Hourly Observations for May 10, 2021

Temp ( °F °C ) Dew Point ( °F °C ) Humidity (%) Winds ( mph kmh ) Pressure ( in mb ) Visibility ( mi km ) Precip ( " mm )
12:15 am 00:15 Clear 41 5.2 39 3.8 91 91 NNE 5 7 30.03 1017 10 16 N/A
12:35 am 00:35 Clear 42 5.3 39 3.8 90 90 NNE 3 6 30.04 1017 10 16 N/A
12:55 am 00:55 Clear 39 4 38 3.6 97 97 N N/A 30.05 1018 10 16 N/A
1:15 am 01:15 Clear 39 4 37 3 93 93 NNE 3 6 30.05 1018 10 16 N/A
1:35 am 01:35 Clear 39 4 39 4 100 100 NNE 6 9 30.05 1018 10 16 N/A
1:55 am 01:55 Clear 37 3 N/A N/A N N/A 30.08 1019 10 16 N/A
2:15 am 02:15 Clear 37 3 N/A N/A N N/A 30.09 1019 10 16 N/A
2:35 am 02:35 Clear 37 3 N/A N/A NNE 3 6 30.09 1019 10 16 N/A
2:55 am 02:55 Clear 37 3 N/A N/A NNE 5 7 30.09 1019 10 16 N/A
3:15 am 03:15 Clear 37 3 N/A N/A N N/A 30.08 1019 10 16 N/A
3:35 am 03:35 Clear 37 3 N/A N/A N N/A 30.09 1019 10 16 N/A
3:55 am 03:55 Clear 36 2 N/A N/A ENE 3 6 30.09 1019 10 16 N/A
4:15 am 04:15 Clear 36 2 N/A N/A NNE 5 7 30.10 1019 10 16 N/A
4:35 am 04:35 Clear 37 3 N/A N/A NE 5 7 30.10 1019 10 16 N/A
4:55 am 04:55 Clear 37 3 N/A N/A NNE 3 6 30.10 1019 10 16 N/A
5:15 am 05:15 Clear 37 3 N/A N/A NNE 6 9 30.11 1020 10 16 N/A
5:35 am 05:35 Clear 36 2 N/A N/A NE 3 6 30.10 1019 10 16 N/A
5:55 am 05:55 Clear 36 2 N/A N/A N N/A 30.10 1019 7 11 N/A
6:15 am 06:15 Hazy 36 2 N/A N/A E 3 6 30.11 1020 5 8 N/A
6:35 am 06:35 Hazy 36 2 N/A N/A ENE 3 6 30.12 1020 5 8 N/A
6:55 am 06:55 Sunny with Mist and Fog 36 2 N/A N/A NE 5 7 30.14 1021 4 6 N/A
7:15 am 07:15 Hazy 36 2 N/A N/A ESE 3 6 30.14 1021 4 6 N/A
7:35 am 07:35 Hazy 37 3 N/A N/A E 3 6 30.15 1021 5 8 N/A
7:55 am 07:55 Sunny 39 4 N/A N/A ENE 5 7 30.15 1021 7 11 N/A
8:15 am 08:15 Sunny 40 4.7 40 4.6 99 99 ENE 6 9 30.14 1021 10 16 N/A
8:35 am 08:35 Sunny 41 5.2 41 4.8 97 97 ENE 5 7 30.16 1021 10 16 N/A
8:55 am 08:55 Sunny 43 6.3 42 5.3 93 93 E 6 9 30.15 1021 10 16 N/A
9:15 am 09:15 Sunny 46 7.5 41 5.2 86 86 ENE 8 13 30.16 1021 10 16 N/A
9:35 am 09:35 Sunny 47 8.2 42 5.4 83 83 ENE 9 15 30.15 1021 10 16 N/A
9:55 am 09:55 Sunny 48 9.1 42 5.4 78 78 NE 8 13 30.15 1021 10 16 N/A
10:15 am 10:15 Sunny 49 9.6 42 5.8 77 77 E 8 13 30.15 1021 10 16 N/A
10:35 am 10:35 Sunny 50 10.1 42 5.5 73 73 NE 5 7 30.15 1021 10 16 N/A
10:55 am 10:55 Sunny 52 11 42 5.6 70 70 ENE 5 7 30.16 1021 10 16 N/A
11:15 am 11:15 Sunny 52 11.1 41 4.8 65 65 N 3 6 30.16 1021 10 16 N/A
11:35 am 11:35 Sunny 54 12 41 4.9 62 62 ENE 3 6 30.15 1021 10 16 N/A
11:55 am 11:55 Sunny 55 12.6 40 4.2 57 57 NE 6 9 30.15 1021 10 16 N/A
12:15 pm 12:15 Sunny 55 12.6 37 2.9 52 52 NE 6 9 30.15 1021 10 16 N/A
12:35 pm 12:35 Sunny 55 13 38 3.5 53 53 SW 5 7 30.15 1021 10 16 N/A
12:55 pm 12:55 Sunny 57 13.8 39 3.9 52 52 NNE 5 7 30.15 1021 10 16 N/A
1:15 pm 13:15 Sunny 57 13.9 37 3 48 48 E 6 9 30.14 1021 10 16 N/A
1:35 pm 13:35 Sunny 58 14.6 37 2.5 44 44 ESE 7 11 30.13 1020 10 16 N/A
1:55 pm 13:55 Partly Cloudy 59 14.9 38 3.6 47 47 E 9 15 30.12 1020 10 16 N/A
2:15 pm 14:15 Partly Cloudy 59 15.2 39 4.1 48 48 NE 5 7 30.13 1020 10 16 N/A
2:35 pm 14:35 Partly Cloudy 59 15.2 39 3.8 47 47 ENE 3 6 30.14 1021 10 16 N/A
2:55 pm 14:55 Partly Cloudy 59 15 39 3.7 47 47 NE 6 9 30.14 1021 10 16 N/A
3:15 pm 15:15 Cloudy 61 15.9 39 3.8 45 45 NNE 6 9 30.13 1020 10 16 N/A
3:35 pm 15:35 Cloudy 59 15.1 37 2.8 44 44 NNE 6 9 30.14 1021 10 16 N/A
3:55 pm 15:55 Cloudy 60 15.4 38 3.4 45 45 N 7 11 30.14 1021 10 16 N/A
4:15 pm 16:15 Sunny 60 15.4 39 3.9 46 46 N 9 15 30.14 1021 10 16 N/A
4:35 pm 16:35 Partly Cloudy 60 15.3 38 3.1 44 44 NNE 7 11 30.13 1020 10 16 N/A
4:55 pm 16:55 Sunny 59 15.1 38 3.3 45 45 ENE 3 6 30.13 1020 10 16 N/A
5:15 pm 17:15 Sunny 59 15.1 38 3.4 46 46 NNW 5 7 30.14 1021 10 16 N/A
5:35 pm 17:35 Sunny 60 15.5 40 4.5 48 48 NE 6 9 30.13 1020 10 16 N/A
5:55 pm 17:55 Sunny 59 15.1 39 3.9 47 47 NNW 3 6 30.14 1021 10 16 N/A
6:15 pm 18:15 Sunny 59 15 38 3.4 46 46 N 5 7 30.14 1021 10 16 N/A
6:35 pm 18:35 Sunny 58 14.7 40 4.5 51 51 NNE 5 7 30.13 1020 10 16 N/A
6:55 pm 18:55 Sunny 58 14.5 38 3.6 48 48 N N/A 30.13 1020 10 16 N/A
7:15 pm 19:15 Sunny 58 14.4 39 3.9 50 50 N N/A 30.13 1020 10 16 N/A
7:35 pm 19:35 Sunny 58 14.3 41 4.8 53 53 N N/A 30.13 1020 10 16 N/A
7:55 pm 19:55 Sunny 57 14 45 7.2 64 64 N N/A 30.13 1020 10 16 N/A
8:15 pm 20:15 Sunny 55 12.7 45 7.4 70 70 N N/A 30.13 1020 10 16 N/A
8:35 pm 20:35 Sunny 54 12 48 8.8 81 81 N N/A 30.13 1020 10 16 N/A
8:55 pm 20:55 Clear 52 11.3 49 9.7 90 90 N N/A 30.14 1021 10 16 N/A
9:15 pm 21:15 Clear 52 10.9 49 9.7 92 92 N N/A 30.14 1021 10 16 N/A
9:35 pm 21:35 Clear 51 10.6 48 9 90 90 N N/A 30.14 1021 10 16 N/A
9:55 pm 21:55 Clear 50 10.1 47 8.1 88 88 N N/A 30.15 1021 10 16 N/A
10:15 pm 22:15 Clear 49 9.5 48 8.7 95 95 N N/A 30.16 1021 10 16 N/A
10:35 pm 22:35 Clear 49 9.4 48 8.9 97 97 N N/A 30.16 1021 10 16 N/A
10:55 pm 22:55 Clear 49 9.4 45 7.4 87 87 N N/A 30.16 1021 10 16 N/A
11:15 pm 23:15 Clear 49 9.4 47 8.1 92 92 N N/A 30.17 1022 10 16 N/A
11:35 pm 23:35 Clear 48 8.9 46 8 94 94 N N/A 30.17 1022 10 16 N/A
11:55 pm 23:55 Partly Cloudy 47 8.3 47 8.2 99 99 N N/A 30.17 1022 10 16 N/A

Powered by AerisWeather